Location: Habighorst
(52.7089°N, 10.2278°E)
Time: 00:21:48
(UTC+00:00)

NOAA 12 - Pass Details

Date: 13 January 2026
Orbit: 793 x 813 km, 98.6° (Epoch: 18 February)

Event Time Altitude Azimuth Distance (km) Brightness Sun altitude
Rises 05:29:04 0° 11° (N) 3,310 7.3 -16.7°
Reaches altitude 10° 05:31:30 10° 5° (N) 2,375 6.4 -16.4°
Maximum altitude 05:36:24 42° 296° (WNW) 1,119 4.4 -15.7°
Drops below altitude 10° 05:41:17 10° 227° (SW) 2,360 6.2 -14.9°
Sets 05:43:42 0° 220° (SW) 3,286 7.0 -14.6°
